Weather History for Pampa / Mesa Vista, TX

Change the Weather History Date:

Friday, February 1, 2013

  Actual Average (KBGD) Record (KBGD)
Temperature  
Mean Temperature 37 °F 40 °F  
Max Temperature 59 °F 53 °F 89 °F (1963)
Min Temperature 15 °F 27 °F -12 °F (1951)
Degree Days  
Heating Degree Days 28 25  
Month to date heating degree days 25  
Since 1 July heating degree days 2377  
Cooling Degree Days 0 0  
Month to date cooling degree days 0  
Year to date cooling degree days 0  
Moisture  
Dew Point 22 °F    
Average Humidity 66    
Maximum Humidity 93    
Minimum Humidity 29    
Precipitation  
Precipitation 0.00 in 0.02 in 0.87 in (1983)
Month to date precipitation 0.02  
Year to date precipitation 0.61  
Snow  
Snow 0.00 in - 8.00 in (1983)
Month to date snowfall  
Since 1 July snowfall  
Snow Depth -    
Sea Level Pressure  
Sea Level Pressure 30.18 in    
Wind  
Wind Speed 6 mph (South)    
Max Wind Speed 20 mph    
Max Gust Speed 26 mph    
Visibility 10 miles    
Events      
T = Trace of Precipitation, MM = Missing Value Source: NWS Daily Summary

Daily Weather History Graph

Daily Weather History Graph

Search for Another Location

Airport:

Trip Planner

Search our weather history database for the weather conditions in past years. The results will help you decide how hot, cold, wet, or windy it might be!

Date:

Astronomy

Feb. 01, 2013 Rise Set
Actual Time 7:44 AM CST 6:11 PM CST
Civil Twilight 7:17 AM CST 6:38 PM CST
Nautical Twilight 6:46 AM CST 7:09 PM CST
Astronomical Twilight 6:16 AM CST 7:39 PM CST
Moon No Moon Rise 10:31 AM CST (2/1)
Length of Visible Light 11h 21m
Length of Day
10h 27m
Waning Gibbous, 70% of the Moon is Illuminated
Feb 1
Waning Gibbous
Feb 3
Last Quarter
Feb 10
New
Feb 17
First Quarter
Feb 25
Full

Hourly Weather History & Observations

Time (CST) Temp. Windchill Dew Point Humidity Pressure Visibility Wind Dir Wind Speed Gust Speed Precip Events Conditions
12:15 AM 26.6 °F 20.0 °F 21.2 °F 80% 30.30 in 10.0 mi East 5.8 mph - N/A   Clear
12:35 AM 26.6 °F 22.6 °F 21.2 °F 80% 30.30 in 10.0 mi SE 3.5 mph - N/A   Clear
12:55 AM 26.6 °F 20.0 °F 21.2 °F 80% 30.30 in 10.0 mi ESE 5.8 mph - N/A   Clear
1:15 AM 23.0 °F 15.8 °F 19.4 °F 86% 30.30 in 10.0 mi ESE 5.8 mph - N/A   Clear
1:35 AM 23.0 °F 18.4 °F 19.4 °F 86% 30.30 in 10.0 mi ESE 3.5 mph - N/A   Clear
1:55 AM 23.0 °F 18.4 °F 19.4 °F 86% 30.30 in 10.0 mi ESE 3.5 mph - N/A   Clear
2:15 AM 23.0 °F 18.4 °F 19.4 °F 86% 30.29 in 10.0 mi ESE 3.5 mph - N/A   Clear
2:35 AM 21.2 °F - 19.4 °F 93% 30.30 in 10.0 mi Calm Calm - N/A   Clear
2:55 AM 21.2 °F - 19.4 °F 93% 30.31 in 10.0 mi Calm Calm - N/A   Clear
3:15 AM 21.2 °F - 19.4 °F 93% 30.30 in 10.0 mi Calm Calm - N/A   Clear
3:35 AM 21.2 °F - 17.6 °F 86% 30.30 in 10.0 mi Calm Calm - N/A   Clear
3:55 AM 19.4 °F - 17.6 °F 93% 30.29 in 10.0 mi Calm Calm - N/A   Clear
4:15 AM 19.4 °F 14.3 °F 17.6 °F 93% 30.29 in 10.0 mi ENE 3.5 mph - N/A   Clear
4:35 AM 19.4 °F - 17.6 °F 93% 30.30 in 10.0 mi Calm Calm - N/A   Clear
4:55 AM 19.4 °F - 17.6 °F 93% 30.29 in 10.0 mi Calm Calm - N/A   Clear
5:15 AM 19.4 °F 11.5 °F 17.6 °F 93% 30.28 in 10.0 mi South 5.8 mph - N/A   Clear
5:35 AM 19.4 °F 11.5 °F 17.6 °F 93% 30.28 in 10.0 mi South 5.8 mph - N/A   Clear
5:55 AM 19.4 °F 14.3 °F 17.6 °F 93% 30.28 in 10.0 mi South 3.5 mph - N/A   Clear
6:15 AM 17.6 °F - 15.8 °F 93% 30.27 in 10.0 mi Calm Calm - N/A   Clear
6:35 AM 19.4 °F - 17.6 °F 93% 30.27 in 10.0 mi Calm Calm - N/A   Clear
6:55 AM 17.6 °F - 14.0 °F 86% 30.26 in 10.0 mi Calm Calm - N/A   Clear
7:15 AM 17.6 °F - 14.0 °F 86% 30.26 in 10.0 mi Calm Calm - N/A   Clear
7:35 AM 15.8 °F - 14.0 °F 93% 30.26 in 10.0 mi Calm Calm - N/A   Clear
7:55 AM 17.6 °F - 15.8 °F 93% 30.26 in 10.0 mi Calm Calm - N/A   Clear
8:15 AM 17.6 °F 12.3 °F 14.0 °F 86% 30.24 in 10.0 mi ESE 3.5 mph - N/A   Clear
8:35 AM 21.2 °F - 17.6 °F 86% 30.25 in 10.0 mi Calm Calm - N/A   Clear
8:55 AM 21.2 °F - 19.4 °F 93% 30.24 in 10.0 mi Calm Calm - N/A   Clear
9:15 AM 24.8 °F - 19.4 °F 80% 30.25 in 10.0 mi Calm Calm - N/A   Clear
9:35 AM 26.6 °F 19.1 °F 19.4 °F 74% 30.25 in 10.0 mi SW 6.9 mph - N/A   Clear
9:55 AM 28.4 °F 21.2 °F 19.4 °F 69% 30.25 in 10.0 mi WSW 6.9 mph - N/A   Clear
10:15 AM 30.2 °F 20.2 °F 19.4 °F 64% 30.25 in 10.0 mi South 12.7 mph - N/A   Clear
10:35 AM 32.0 °F 22.5 °F 19.4 °F 60% 30.24 in 10.0 mi South 12.7 mph - N/A   Clear
10:55 AM 33.8 °F 25.8 °F 21.2 °F 60% 30.23 in 10.0 mi SSW 10.4 mph 18.4 mph N/A   Clear
11:15 AM 35.6 °F 27.5 °F 21.2 °F 56% 30.23 in 10.0 mi South 11.5 mph 19.6 mph N/A   Clear
11:35 AM 39.2 °F 30.8 °F 23.0 °F 52% 30.21 in 10.0 mi SSW 15.0 mph 20.7 mph N/A   Clear
11:55 AM 41.0 °F 32.2 °F 24.8 °F 53% 30.20 in 10.0 mi SSW 18.4 mph 24.2 mph N/A   Clear
12:15 PM 41.0 °F 32.5 °F 23.0 °F 49% 30.19 in 10.0 mi SSW 17.3 mph 21.9 mph N/A   Clear
12:35 PM 41.0 °F 32.8 °F 24.8 °F 53% 30.17 in 10.0 mi SSW 16.1 mph 20.7 mph N/A   Clear
12:55 PM 42.8 °F 36.6 °F 24.8 °F 49% 30.15 in 10.0 mi SSW 11.5 mph 17.3 mph N/A   Clear
1:15 PM 44.6 °F 37.8 °F 26.6 °F 49% 30.13 in 10.0 mi SSW 15.0 mph - N/A   Clear
1:35 PM 46.4 °F 39.8 °F 26.6 °F 46% 30.11 in 10.0 mi SSW 16.1 mph 25.3 mph N/A   Clear
1:55 PM 46.4 °F 39.0 °F 26.6 °F 46% 30.10 in 10.0 mi SSW 19.6 mph 26.5 mph N/A   Clear
2:15 PM 50.0 °F - 26.6 °F 40% 30.09 in 10.0 mi SW 18.4 mph 21.9 mph N/A   Clear
2:35 PM 50.0 °F - 26.6 °F 40% 30.07 in 10.0 mi SW 15.0 mph 21.9 mph N/A   Clear
2:55 PM 51.8 °F - 26.6 °F 38% 30.05 in 10.0 mi SW 17.3 mph 24.2 mph N/A   Clear
3:15 PM 55.4 °F - 28.4 °F 36% 30.04 in 10.0 mi WSW 16.1 mph 20.7 mph N/A   Clear
3:35 PM 55.4 °F - 28.4 °F 36% 30.03 in 10.0 mi WSW 10.4 mph - N/A   Clear
3:55 PM 59.0 °F - 28.4 °F 31% 30.02 in 10.0 mi WSW 9.2 mph 17.3 mph N/A   Clear
4:15 PM 59.0 °F - 26.6 °F 29% 30.01 in 10.0 mi SSW 9.2 mph - N/A   Clear
4:35 PM 59.0 °F - 26.6 °F 29% 30.02 in 10.0 mi South 11.5 mph - N/A   Clear
4:55 PM 55.4 °F - 26.6 °F 33% 30.01 in 10.0 mi South 12.7 mph 17.3 mph N/A   Clear
5:15 PM 53.6 °F - 26.6 °F 35% 30.02 in 10.0 mi South 11.5 mph - N/A   Clear
5:35 PM 53.6 °F - 26.6 °F 35% 30.03 in 10.0 mi South 12.7 mph - N/A   Clear
5:55 PM 50.0 °F - 26.6 °F 40% 30.03 in 10.0 mi South 10.4 mph - N/A   Clear
6:15 PM 46.4 °F 41.5 °F 24.8 °F 43% 30.03 in 10.0 mi South 10.4 mph - N/A   Clear
6:35 PM 44.6 °F 39.7 °F 26.6 °F 49% 30.04 in 10.0 mi SSE 9.2 mph - N/A   Clear
6:55 PM 42.8 °F 36.2 °F 26.6 °F 53% 30.04 in 10.0 mi SSE 12.7 mph - N/A   Clear
7:15 PM 42.8 °F 37.0 °F 26.6 °F 53% 30.05 in 10.0 mi SSE 10.4 mph - N/A   Clear
7:35 PM 41.0 °F 34.7 °F 26.6 °F 57% 30.07 in 10.0 mi SSE 10.4 mph - N/A   Clear
8:15 PM 37.4 °F 31.4 °F 24.8 °F 60% 30.09 in 10.0 mi SSE 8.1 mph - N/A   Clear
8:35 PM 35.6 °F - 24.8 °F 65% 30.10 in 10.0 mi Calm Calm - N/A   Clear
8:55 PM 37.4 °F - 24.8 °F 60% 30.11 in 10.0 mi Calm Calm - N/A   Clear
9:15 PM 35.6 °F 32.8 °F 24.8 °F 65% 30.11 in 10.0 mi NE 3.5 mph - N/A   Clear
9:35 PM 35.6 °F 31.7 °F 23.0 °F 60% 30.11 in 10.0 mi NNE 4.6 mph - N/A   Clear
10:15 PM 33.8 °F - 23.0 °F 65% 30.12 in 10.0 mi Calm Calm - N/A   Clear
10:35 PM 33.8 °F - 23.0 °F 65% 30.13 in 10.0 mi Calm Calm - N/A   Clear
10:55 PM 35.6 °F - 24.8 °F 65% 30.13 in 10.0 mi Calm Calm - N/A   Clear
11:15 PM 35.6 °F 31.7 °F 23.0 °F 60% 30.13 in 10.0 mi South 4.6 mph - N/A   Clear
11:35 PM 30.2 °F - 23.0 °F 75% 30.14 in 10.0 mi Calm Calm - N/A   Clear
11:55 PM 30.2 °F 24.3 °F 21.2 °F 69% 30.15 in 10.0 mi SW 5.8 mph - N/A   Clear